Cold Bay, AK

6:35 AM AKDT on August 26, 2016 (GMT -0800)
Cold Bay

Weather History for PACD - November, 2011

Change the Weather History Date:

Tuesday, November 15, 2011

  Actual Average Record
Temperature  
Mean Temperature 33 °F 35 °F  
Max Temperature 40 °F 39 °F 52 °F (1979)
Min Temperature 26 °F 30 °F 13 °F (2001)
Degree Days  
Heating Degree Days 32 31  
Month to date heating degree days 409 441  
Since 1 July heating degree days 2599 2554  
Cooling Degree Days 0    
Month to date cooling degree days 0  
Year to date cooling degree days 0  
Moisture  
Dew Point 25 °F    
Average Humidity 0    
Maximum Humidity 0    
Minimum Humidity 0    
Precipitation  
Precipitation 0.04 in 0.16 in 2.07 in (1987)
Month to date precipitation 1.84 2.38  
Year to date precipitation 31.95 34.61  
Snow  
Snow 0.10 in 0.30 in 2.20 in (1977)
Month to date snowfall 0.1 4.2  
Since 1 July snowfall 6.6  
Since 1 September snowfall 0.2 6.6  
Snow Depth T in    
Sea Level Pressure  
Sea Level Pressure 30.10 in    
Wind  
Wind Speed 21 mph (NNW)    
Max Wind Speed 32 mph    
Max Gust Speed 40 mph    
Visibility 7 miles    
Events Rain , Snow    
T = Trace of Precipitation, MM = Missing Value Source: NWS Daily Summary

Daily Weather History Graph

Daily Weather History Graph

Search for Another Location

Airport or City:

Trip Planner

Search our weather history database for the weather conditions in past years. The results will help you decide how hot, cold, wet, or windy it might be!

Date:

Astronomy

Nov. 15, 2011 Rise Set
Actual Time 9:23 AM AKST 5:46 PM AKST
Civil Twilight 8:42 AM AKST 6:27 PM AKST
Nautical Twilight 7:57 AM AKST 7:12 PM AKST
Astronomical Twilight 7:14 AM AKST 7:55 PM AKST
Moon 10:07 PM AKST (11/15) 1:35 PM AKST (11/15)
Length of Visible Light 9h 44m
Length of Day
8h 22m
Waning Gibbous, 77% of the Moon is Illuminated
Nov 15
Waning Gibbous
Nov 18
Last Quarter
Nov 24
New
Dec 2
First Quarter
Dec 10
Full

Hourly Weather History & Observations

Time (AKST) Temp. Windchill Dew Point Humidity Pressure Visibility Wind Dir Wind Speed Gust Speed Precip Events Conditions
12:53 AM 39.9 °F 29.0 °F 36.0 °F 86% 29.81 in 10.0 mi WSW 26.5 mph 40.3 mph 0.01 in   Overcast
1:22 AM 39.2 °F 28.3 °F 35.6 °F 87% 29.81 in 10.0 mi WSW 25.3 mph 32.2 mph 0.00 in Rain Light Rain
1:53 AM 39.0 °F 27.6 °F 37.0 °F 93% 29.81 in 5.0 mi WSW 27.6 mph 35.7 mph 0.00 in Rain Light Rain
2:19 AM 37.4 °F 26.6 °F 35.6 °F 93% 29.83 in 10.0 mi WNW 21.9 mph - 0.02 in Rain Light Rain
3:53 AM 33.8 °F 22.5 °F 30.2 °F 87% 29.92 in 10.0 mi NW 19.6 mph - N/A   Overcast
3:59 AM 33.8 °F 22.2 °F 30.2 °F 87% 29.92 in 10.0 mi NW 20.7 mph 27.6 mph N/A   Mostly Cloudy
4:06 AM 33.8 °F 21.9 °F 30.2 °F 87% 29.92 in 10.0 mi NW 21.9 mph 29.9 mph N/A   Mostly Cloudy
4:19 AM 33.8 °F 22.8 °F 30.2 °F 87% 29.93 in 10.0 mi NNW 18.4 mph - N/A   Overcast
4:53 AM 32.0 °F 21.2 °F 30.0 °F 92% 29.94 in 3.0 mi NW 16.1 mph - 0.00 in Snow Light Snow
5:08 AM 32.0 °F 20.8 °F 30.2 °F 93% 29.94 in 2.5 mi North 17.3 mph 27.6 mph 0.00 in Snow Light Snow
5:13 AM 32.0 °F 19.8 °F 30.2 °F 93% 29.94 in 1.5 mi North 20.7 mph - 0.01 in Snow Light Snow
5:25 AM 32.0 °F 19.8 °F 30.2 °F 93% 29.95 in 2.5 mi North 20.7 mph 26.5 mph 0.01 in Snow Light Snow
5:29 AM 32.0 °F 19.5 °F 30.2 °F 93% 29.95 in 1.0 mi North 21.9 mph 27.6 mph 0.01 in Snow Light Snow
5:37 AM 30.2 °F 17.1 °F 30.2 °F 100% 29.96 in 1.8 mi North 21.9 mph 29.9 mph 0.02 in Snow Light Snow
5:44 AM 30.2 °F 17.4 °F 30.2 °F 100% 29.96 in 3.0 mi North 20.7 mph 28.8 mph 0.02 in Snow Light Snow
5:53 AM 30.9 °F 18.4 °F 28.9 °F 92% 29.97 in 4.0 mi North 20.7 mph 29.9 mph 0.02 in Snow Light Snow
6:07 AM 30.2 °F 15.4 °F 28.4 °F 93% 29.97 in 2.0 mi North 28.8 mph 35.7 mph 0.00 in Snow Light Snow
6:17 AM 30.2 °F 15.4 °F 28.4 °F 93% 29.98 in 1.8 mi North 28.8 mph 35.7 mph 0.00 in Snow Light Snow
6:24 AM 30.2 °F 15.7 °F 28.4 °F 93% 29.99 in 2.5 mi North 27.6 mph 36.8 mph 0.00 in Snow Light Snow
6:31 AM 30.2 °F 15.9 °F 28.4 °F 93% 30.00 in 5.0 mi North 26.5 mph 36.8 mph 0.00 in Snow Light Snow
6:48 AM 30.2 °F 16.2 °F 26.6 °F 86% 30.01 in 10.0 mi North 25.3 mph 32.2 mph 0.00 in Snow Light Snow
6:53 AM 30.0 °F 15.4 °F 27.0 °F 88% 30.02 in 8.0 mi North 27.6 mph 32.2 mph 0.00 in Snow Light Snow
7:53 AM 28.9 °F 15.1 °F 25.0 °F 85% 30.06 in 9.0 mi North 23.0 mph 31.1 mph 0.00 in Snow Light Snow
8:53 AM 28.0 °F 13.0 °F 21.0 °F 75% 30.11 in 9.0 mi NNW 26.5 mph 38.0 mph 0.00 in Snow Light Snow
9:53 AM 27.0 °F 12.2 °F 18.0 °F 69% 30.15 in 9.0 mi NNW 24.2 mph 32.2 mph 0.00 in Snow Light Snow
10:53 AM 27.0 °F 12.2 °F 18.0 °F 69% 30.19 in 9.0 mi North 24.2 mph 32.2 mph 0.00 in Snow Light Snow
11:53 AM 27.0 °F 12.5 °F 17.1 °F 66% 30.22 in 9.0 mi North 23.0 mph 29.9 mph 0.00 in Snow Light Snow
12:53 PM 27.0 °F 12.5 °F 17.1 °F 66% 30.26 in 10.0 mi North 23.0 mph 29.9 mph 0.00 in   Mostly Cloudy
1:53 PM 27.0 °F 12.8 °F 17.1 °F 66% 30.29 in 10.0 mi North 21.9 mph 31.1 mph N/A   Mostly Cloudy
2:53 PM 27.0 °F 13.5 °F 18.0 °F 69% 30.32 in 10.0 mi North 19.6 mph 28.8 mph N/A   Mostly Cloudy
3:53 PM 27.0 °F 13.2 °F 17.1 °F 66% 30.35 in 10.0 mi North 20.7 mph 31.1 mph N/A   Mostly Cloudy
4:53 PM 27.0 °F 13.2 °F 18.0 °F 69% 30.37 in 10.0 mi North 20.7 mph 25.3 mph N/A   Overcast
5:53 PM 26.1 °F 12.7 °F 18.0 °F 71% 30.39 in 10.0 mi North 18.4 mph - N/A   Overcast
6:53 PM 27.0 °F 12.8 °F 17.1 °F 66% 30.42 in 10.0 mi North 21.9 mph 28.8 mph N/A   Overcast
7:53 PM 27.0 °F 13.5 °F 17.1 °F 66% 30.44 in 10.0 mi North 19.6 mph - N/A   Overcast
8:53 PM 27.0 °F 14.7 °F 18.0 °F 69% 30.47 in 10.0 mi North 16.1 mph - N/A   Overcast
9:53 PM 27.0 °F 15.6 °F 18.0 °F 69% 30.48 in 10.0 mi North 13.8 mph - N/A   Overcast
10:53 PM 27.0 °F 14.7 °F 17.1 °F 66% 30.48 in 10.0 mi North 16.1 mph - N/A   Mostly Cloudy
11:53 PM 27.0 °F 15.6 °F 17.1 °F 66% 30.50 in 10.0 mi North 13.8 mph - N/A   Overcast